INTELSAT 906 (IS-906)

Last updated on Sun Apr 12 2026 00:02:50 GMT+0000 (Coordinated Universal Time)

1 27513U 02041A 26101.53334411 .00000019 00000+0 00000+0 0 9997 2 27513 5.6350 73.7251 0003610 318.4445 63.7210 1.00271231 86362
UTC large
Height (km)
Speed (km/s)
/
Latitude / Longitude
Inclination (degrees)
Orbital Period (minutes)
Azimuth
Elevation
Range (km)
Doppler Factor

Next 0 passes for location: London (51.5072 / 0.1276)

Sorry there are no passes over London.
INTELSAT 906 (IS-906)